{"data":{"norad_id":56876,"epoch":"2026-09-20T21:44:14.433504Z","epoch_age_seconds":82472,"freshness":"FRESH","line1":"1 56876U 23083A   26263.90572261  .00000454  00000+0  26068-4 0  9997","line2":"2 56876  43.0077  62.9351 0003027 260.9235  99.1274 15.27576735181482","mean_motion":15.27576735,"eccentricity":0.0003027,"inclination_deg":43.0077,"raan_deg":62.9351,"arg_perigee_deg":260.9235,"mean_anomaly_deg":99.1274,"bstar":2.6068e-5,"rev_number":18148,"period_min":94.266950196777,"perigee_km":480.981988651,"apogee_km":485.13575663229,"semimajor_km":6861.1958726416,"source":"CELESTRAK","updated_at":"2026-09-21T09:00:33.518973Z"}}